EW7082 Weather Reports


Display with metric or nautical units.
time (UTC)temp
F
wind
direction
speed
MPH
gust
MPH
rain 1hr
in
rain 24hr
in
rain mn
in
humidity
%
barometer
mb
20260503221205 76 347 4.0 7.0 0.00 0.00 0.00 42 1012.6
20260503220205 76 265 3.0 6.0 0.00 0.00 0.00 45 1012.8
20260503215703 75 46 3.0 5.0 0.00 0.00 0.00 46 1012.8
20260503215205 75 46 3.0 6.0 0.00 0.00 0.00 44 1012.9
20260503214703 75 323 2.0 7.0 0.00 0.00 0.00 52 1013.0
20260503214205 74 346 4.0 9.0 0.00 0.00 0.00 46 1013.1
20260503213706 74 299 4.0 8.0 0.00 0.00 0.00 47 1013.1
20260503213204 74 347 4.0 9.0 0.00 0.00 0.00 48 1013.1
20260503212706 74 27 3.0 7.0 0.00 0.00 0.00 49 1013.2
20260503212204 74 11 5.0 8.0 0.00 0.00 0.00 46 1013.2
20260503211704 74 357 4.0 12.0 0.00 0.00 0.00 46 1013.2
20260503211204 74 315 5.0 9.0 0.00 0.00 0.00 45 1013.3
20260503210704 74 305 6.0 10.0 0.00 0.00 0.00 46 1013.3
20260503205704 74 350 6.0 9.0 0.00 0.00 0.00 48 1013.4
20260503205205 74 329 6.0 10.0 0.00 0.00 0.00 48 1013.3
20260503204705 74 309 8.0 12.0 0.00 0.00 0.00 46 1013.4
20260503203705 75 304 5.0 10.0 0.00 0.00 0.00 46 1013.4
20260503203204 75 332 5.0 9.0 0.00 0.00 0.00 45 1013.4
20260503202204 75 14 3.0 7.0 0.00 0.00 0.00 48 1013.4
20260503201703 75 8 5.0 9.0 0.00 0.00 0.00 46 1013.4
20260503201205 75 18 3.0 8.0 0.00 0.00 0.00 48 1013.4
20260503200706 75 23 2.0 6.0 0.00 0.00 0.00 48 1013.5
20260503200204 75 343 4.0 8.0 0.00 0.00 0.00 49 1013.6
20260503195705 75 274 3.0 7.0 0.00 0.00 0.00 52 1013.8
20260503195204 74 340 2.0 6.0 0.00 0.00 0.00 51 1013.8
20260503194704 74 307 5.0 9.0 0.00 0.00 0.00 48 1013.8
20260503194204 74 9 3.0 10.0 0.00 0.00 0.00 49 1013.8
20260503193706 75 8 4.0 8.0 0.00 0.00 0.00 49 1013.9
20260503193203 75 295 2.0 3.0 0.00 0.00 0.00 49 1014.0
20260503192704 75 318 2.0 6.0 0.00 0.00 0.00 52 1014.1
20260503192204 75 349 3.0 8.0 0.00 0.00 0.00 51 1014.1
20260503191203 74 284 3.0 6.0 0.00 0.00 0.00 48 1014.2
20260503190705 74 223 2.0 5.0 0.00 0.00 0.00 47 1014.2
20260503190204 74 264 4.0 7.0 0.00 0.00 0.00 52 1014.3
20260503185205 73 313 3.0 7.0 0.00 0.00 0.00 48 1014.3
20260503184204 73 353 2.0 5.0 0.00 0.00 0.00 52 1014.6
20260503183705 72 358 2.0 8.0 0.00 0.00 0.00 50 1014.6
20260503183204 72 11 3.0 5.0 0.00 0.00 0.00 51 1014.6
20260503182704 73 318 4.0 8.0 0.00 0.00 0.00 52 1014.6
20260503182205 72 347 4.0 5.0 0.00 0.00 0.00 54 1014.7
20260503181705 72 332 2.0 8.0 0.00 0.00 0.00 53 1014.7
20260503181204 72 315 2.0 5.0 0.00 0.00 0.00 53 1014.8
20260503180705 72 332 3.0 8.0 0.00 0.00 0.00 53 1014.8
20260503180204 71 1 2.0 3.0 0.00 0.00 0.00 51 1014.9
20260503175704 71 303 3.0 5.0 0.00 0.00 0.00 51 1014.9
20260503175205 71 320 3.0 7.0 0.00 0.00 0.00 49 1015.0
20260503174206 71 337 5.0 8.0 0.00 0.00 0.00 54 1015.1
20260503173705 71 279 5.0 8.0 0.00 0.00 0.00 54 1015.1
20260503173204 71 344 4.0 8.0 0.00 0.00 0.00 54 1015.1
20260503172704 71 283 1.0 5.0 0.00 0.00 0.00 54 1015.2
20260503172205 71 274 3.0 7.0 0.00 0.00 0.00 56 1015.2
20260503171704 70 291 2.0 7.0 0.00 0.00 0.00 56 1015.2
20260503171203 70 280 5.0 8.0 0.00 0.00 0.00 56 1015.2
20260503170705 70 327 3.0 8.0 0.00 0.00 0.00 54 1015.2
20260503170203 70 316 2.0 7.0 0.00 0.00 0.00 55 1015.3
20260503160204 69 291 3.0 6.0 0.00 0.00 0.00 58 1015.5
20260503150704 66 247 4.0 7.0 0.00 0.00 0.00 63 1015.9
20260503140205 56 253 1.0 3.0 0.00 0.00 0.00 80 1015.6
20260503131205 53 248 1.0 3.0 0.00 0.00 0.00 80 1015.4
20260503130704 52 212 3.0 7.0 0.00 0.00 0.00 82 1015.4
20260503130204 51 209 3.0 8.0 0.00 0.00 0.00 82 1015.4
20260503120205 51 228 1.0 2.0 0.00 0.00 0.00 82 1015.5
20260503110705 53 252 0.0 1.0 0.00 0.00 0.00 76 1015.4
20260503110203 53 252 1.0 2.0 0.00 0.00 0.00 77 1015.4
20260503090205 58 240 4.0 6.0 0.00 0.00 0.00 70 1015.1
20260503081204 54 279 0.0 2.0 0.00 0.00 0.00 81 1015.1
20260503080204 54 279 1.0 2.0 0.00 0.00 0.00 81 1015.0
20260503072704 53 269 1.0 2.0 0.00 0.00 0.00 83 1014.9
20260503072205 53 269 1.0 2.0 0.00 0.00 0.00 82 1014.9
20260503071704 53 269 2.0 3.0 0.00 0.00 0.00 82 1014.9
20260503071204 53 269 1.0 3.0 0.00 0.00 0.00 83 1014.9
20260503070706 53 269 2.0 3.0 0.00 0.00 0.00 83 1014.9
20260503070205 54 269 2.0 3.0 0.00 0.00 0.00 83 1015.0
20260503060204 56 300 2.0 3.0 0.00 0.00 0.00 79 1014.9
20260503054705 56 284 2.0 3.0 0.00 0.00 0.00 78 1014.8
20260503054204 57 284 3.0 3.0 0.00 0.00 0.00 78 1014.9
20260503053705 57 284 1.0 3.0 0.00 0.00 0.00 76 1014.9
20260503053204 57 284 2.0 3.0 0.00 0.00 0.00 77 1014.9
20260503052705 57 284 2.0 3.0 0.00 0.00 0.00 77 1015.0
20260503052206 57 284 2.0 3.0 0.00 0.00 0.00 78 1015.0
20260503051704 57 284 2.0 3.0 0.00 0.00 0.00 78 1014.9
20260503051203 58 241 0.0 2.0 0.00 0.00 0.00 76 1015.0
20260503050706 58 241 2.0 3.0 0.00 0.00 0.00 76 1014.9
20260503050205 58 296 3.0 3.0 0.00 0.00 0.00 75 1014.9
20260503045705 59 249 2.0 3.0 0.00 0.00 0.00 74 1014.8
20260503044705 60 239 2.0 3.0 0.00 0.00 0.00 72 1014.8
20260503044204 60 210 2.0 3.0 0.00 0.00 0.00 72 1014.8
20260503043205 60 188 1.0 2.0 0.00 0.00 0.00 73 1014.7
20260503042704 60 188 0.0 2.0 0.00 0.00 0.00 74 1014.7
20260503042205 60 188 0.0 1.0 0.00 0.00 0.00 73 1014.6
20260503041704 61 188 0.0 1.0 0.00 0.00 0.00 72 1014.6
20260503041204 61 188 1.0 2.0 0.00 0.00 0.00 72 1014.6
20260503040704 62 188 0.0 1.0 0.00 0.00 0.00 72 1014.5
20260503040203 62 188 0.0 0.0 0.00 0.00 0.00 71 1014.5
20260503035704 62 188 0.0 0.0 0.00 0.00 0.00 70 1014.4
20260503035205 62 188 0.0 0.0 0.00 0.00 0.00 70 1014.3
20260503033705 64 173 0.0 2.0 0.00 0.00 0.00 66 1014.1
20260503033204 65 173 1.0 2.0 0.00 0.00 0.00 64 1014.1
20260503032704 66 173 0.0 1.0 0.00 0.00 0.00 62 1014.1
20260503031704 69 212 2.0 3.0 0.00 0.00 0.00 60 1014.1
20260503031205 70 212 1.0 3.0 0.00 0.00 0.00 58 1014.0
20260503030705 72 294 0.0 3.0 0.00 0.00 0.00 54 1014.1
20260503030204 74 303 0.0 0.0 0.00 0.00 0.00 52 1014.1
20260503025705 74 303 0.0 0.0 0.00 0.00 0.00 49 1014.0
20260503025205 74 303 0.0 0.0 0.00 0.00 0.00 53 1014.0
20260503024704 75 303 0.0 0.0 0.00 0.00 0.00 53 1014.0
20260503024205 76 303 0.0 0.0 0.00 0.00 0.00 50 1014.0
20260503023705 76 303 0.0 0.0 0.00 0.00 0.00 51 1014.0
20260503023206 75 303 0.0 1.0 0.00 0.00 0.00 49 1014.0
20260503022704 75 303 1.0 1.0 0.00 0.00 0.00 48 1014.0
20260503021704 75 303 1.0 2.0 0.00 0.00 0.00 46 1014.1
20260503021204 75 303 2.0 3.0 0.00 0.00 0.00 44 1014.1
20260503020705 76 303 1.0 2.0 0.00 0.00 0.00 44 1014.2
20260503020204 76 303 2.0 3.0 0.00 0.00 0.00 45 1014.2
20260503015705 76 342 2.0 3.0 0.00 0.00 0.00 45 1014.2
20260503015204 76 311 2.0 3.0 0.00 0.00 0.00 43 1014.2
20260503014704 76 298 2.0 3.0 0.00 0.00 0.00 46 1014.3
20260503014205 77 279 2.0 3.0 0.00 0.00 0.00 45 1014.3
20260503013704 77 319 2.0 3.0 0.00 0.00 0.00 42 1014.3
20260503013204 77 309 1.0 3.0 0.00 0.00 0.00 41 1014.4
20260503012205 77 334 1.0 3.0 0.00 0.00 0.00 41 1014.5
20260503011704 77 263 0.0 3.0 0.00 0.00 0.00 42 1014.5
20260503011205 77 304 1.0 3.0 0.00 0.00 0.00 40 1014.6
20260503010706 76 266 1.0 3.0 0.00 0.00 0.00 41 1014.5
20260503010204 76 293 3.0 6.0 0.00 0.00 0.00 40 1014.6
20260503005205 76 261 3.0 3.0 0.00 0.00 0.00 40 1014.6
20260503004703 77 268 3.0 3.0 0.00 0.00 0.00 39 1014.6
20260503004204 76 325 2.0 3.0 0.00 0.00 0.00 37 1014.6
20260503003704 76 294 2.0 3.0 0.00 0.00 0.00 37 1014.6
20260503003204 76 232 2.0 3.0 0.00 0.00 0.00 43 1014.6
20260503002704 76 309 1.0 3.0 0.00 0.00 0.00 43 1014.7
20260503002206 75 277 3.0 7.0 0.00 0.00 0.00 41 1014.7
20260503001704 75 325 3.0 7.0 0.00 0.00 0.00 41 1014.7
20260503001204 75 274 2.0 6.0 0.00 0.00 0.00 40 1014.8
20260503000705 75 341 3.0 5.0 0.00 0.00 0.00 39 1014.8
20260503000204 75 45 2.0 9.0 0.00 0.00 0.00 41 1014.8
20260502235704 75 4 4.0 8.0 0.00 0.00 0.00 43 1014.9
20260502235205 75 10 3.0 6.0 0.00 0.00 0.00 44 1014.9
20260502234704 75 324 3.0 7.0 0.00 0.00 0.00 45 1014.9
20260502233704 75 341 3.0 7.0 0.00 0.00 0.00 44 1015.1
20260502233203 75 315 3.0 6.0 0.00 0.00 0.00 44 1015.1
20260502232204 75 284 1.0 3.0 0.00 0.00 0.00 48 1015.2
20260502231704 75 261 3.0 6.0 0.00 0.00 0.00 48 1015.3
20260502231204 75 291 1.0 5.0 0.00 0.00 0.00 46 1015.3
20260502230704 74 250 2.0 7.0 0.00 0.00 0.00 45 1015.6
20260502230203 74 271 5.0 7.0 0.00 0.00 0.00 45 1015.6
20260502225703 75 239 3.0 7.0 0.00 0.00 0.00 48 1015.6
20260502225205 74 275 3.0 7.0 0.00 0.00 0.00 45 1015.7
20260502224704 74 260 2.0 3.0 0.00 0.00 0.00 47 1015.8
20260502224205 74 272 3.0 8.0 0.00 0.00 0.00 50 1015.9
20260502223705 73 215 4.0 8.0 0.00 0.00 0.00 48 1016.0
20260502223204 73 217 3.0 5.0 0.00 0.00 0.00 52 1016.1
20260502222705 72 331 1.0 3.0 0.00 0.00 0.00 54 1016.2
20260502222204 72 280 3.0 7.0 0.00 0.00 0.00 51 1016.3